This demonstration page uses our WeatherBlox Daily Observations layout. Learn more.

Left ArrowRight Arrow

40.97296, -117.73568

Hourly Observations for January 18, 2022

Temp ( °F °C ) Dew Point ( °F °C ) Humidity (%) Winds ( mph kmh ) Pressure ( in mb ) Visibility ( mi km ) Precip ( " mm )
12:56 am 00:56 Clear 24 -4.4 21 -6.1 88 88 S 6 9 30.09 1019 10 16 0.00 0.00
1:56 am 01:56 Clear 24 -4.4 22 -5.6 91 91 SSE 5 7 30.09 1019 10 16 0.00 0.00
2:56 am 02:56 Clear 22 -5.6 19 -7.2 89 89 Calm 30.10 1019 10 16 0.00 0.00
3:56 am 03:56 Clear 20 -6.7 17 -8.3 89 89 Calm 30.10 1019 10 16 0.00 0.00
4:56 am 04:56 Clear 21 -6.1 18 -7.8 88 88 S 3 6 30.11 1020 10 16 0.00 0.00
5:56 am 05:56 Partly Cloudy 20 -6.7 18 -7.8 92 92 S 6 9 30.14 1021 10 16 0.00 0.00
6:03 am 06:03 Mostly Cloudy 21 -6.1 18 -7.8 88 88 SSE 6 9 30.30 1026 10 16 0.00 0.00
6:14 am 06:14 Partly Cloudy 22 -5.6 19 -7.2 89 89 SSE 6 9 30.29 1026 10 16 0.00 0.00
6:56 am 06:56 Clear 23 -5 20 -6.7 88 88 Calm 30.16 1021 10 16 0.00 0.00
7:56 am 07:56 Sunny 24 -4.4 21 -6.1 88 88 Calm 30.17 1022 10 16 0.00 0.00
8:56 am 08:56 Sunny 29 -1.7 28 -2.2 96 96 Calm 30.17 1022 10 16 0.00 0.00
9:56 am 09:56 Sunny 34 1.1 30 -1.1 85 85 NE 3 6 30.19 1022 10 16 0.00 0.00
10:56 am 10:56 Sunny 38 3.3 31 -0.6 76 76 Calm 30.17 1022 10 16 0.00 0.00
11:56 am 11:56 Sunny 41 5 31 -0.6 67 67 Calm 30.15 1021 10 16 0.00 0.00
12:56 pm 12:56 Sunny 45 7.2 32 0 61 61 Calm 30.13 1020 10 16 0.00 0.00
1:56 pm 13:56 Sunny 46 7.8 31 -0.6 56 56 SW 3 6 30.11 1020 10 16 0.00 0.00
2:56 pm 14:56 Sunny 47 8.3 30 -1.1 52 52 VRB 3 6 30.11 1020 10 16 0.00 0.00
3:56 pm 15:56 Mostly Sunny 46 7.8 29 -1.7 51 51 NW 6 9 30.13 1020 10 16 0.00 0.00
4:56 pm 16:56 Clear 40 4.4 31 -0.6 70 70 SSE 6 9 30.14 1021 10 16 0.00 0.00
5:56 pm 17:56 Clear 36 2.2 29 -1.7 76 76 S 5 7 30.16 1021 10 16 0.00 0.00
6:56 pm 18:56 Clear 35 1.7 29 -1.7 78 78 ENE 3 6 30.18 1022 10 16 0.00 0.00
7:56 pm 19:56 Clear 30 -1.1 26 -3.3 85 85 Calm 30.21 1023 10 16 0.00 0.00
8:56 pm 20:56 Clear 29 -1.7 26 -3.3 89 89 S 3 6 30.21 1023 10 16 0.00 0.00
9:56 pm 21:56 Mostly Cloudy 29 -1.7 26 -3.3 89 89 ESE 3 6 30.21 1023 10 16 0.00 0.00
10:56 pm 22:56 Cloudy 30 -1.1 27 -2.8 88 88 SSE 3 6 30.21 1023 10 16 0.00 0.00
11:56 pm 23:56 Clear 27 -2.8 25 -3.9 92 92 SSE 6 9 30.22 1023 10 16 0.00 0.00

Powered by AerisWeather